Location: Siris
(39.7142°N, 8.7744°E)
Time: 01:26:18
(UTC+00:00)

Daily predictions for brighter satellites

Satellite Brightness Start Highest point End
(mag) Time Altitude Azimuth Time Altitude Azimuth Time Altitude Azimuth
USA 267 3.8 03:24:14 10° SE 03:29:00 52° SE 03:29:00 52° SE
SL-16 R/B 4.4 03:28:34 10° SSE 03:32:46 22° E 03:36:59 10° NE
Cosmos 2278 Rocket 3.4 03:36:40 35° SE 03:36:40 35° SE 03:40:03 10° SE
Cosmos 2237 Rocket 3.5 03:43:06 33° NNE 03:43:06 33° NNE 03:46:08 10° NNE
CZ-2C R/B 3.9 03:44:59 18° ESE 03:44:59 18° ESE 03:46:13 10° ESE
BREEZE-M DEB (TANK) 4.2 03:55:50 46° NNW 03:57:46 57° NNE 04:01:54 10° E
Lacrosse 4 Rocket 3.3 04:04:26 26° NE 04:04:26 26° NE 04:06:26 10° NNE
USA 238 DEB 4.2 04:03:48 18° S 04:08:29 54° ESE 04:15:03 10° NE
USA 238 4.2 04:03:48 18° S 04:08:36 54° ESE 04:15:09 10° NE
Cosmos 1464 Rocket 3.8 04:13:46 68° NW 04:13:46 68° NW 04:19:23 10° N
Gbstr 26 Del rocket 4.3 04:13:50 58° WNW 04:14:42 62° NNW 04:22:44 10° NE
SKYMED 2 4.4 04:17:21 10° SSE 04:21:32 49° ENE 04:23:56 23° N
Meteor 1-21 Rocket 4.2 04:17:52 18° N 04:22:18 86° E 04:28:11 10° S
Meteor 2-13 Rocket 4.4 04:17:02 10° N 04:23:14 83° E 04:29:22 10° S
FALCON 9 R/B 3.5 04:24:55 22° SSW 04:24:55 22° SSW 04:27:33 10° SSE
Atlas Centaur 2 3.5 04:26:50 32° SW 04:29:00 39° S 04:36:26 10° ESE
ATLAS CENTAUR R/B 3.2 04:31:44 18° NNE 04:31:44 18° NNE 04:32:49 10° NNE
METEOR-M 4.3 04:30:03 10° N 04:34:34 50° NW 04:34:34 50° NW
Lacrosse 5 rocket 2.4 04:40:11 29° S 04:40:11 29° S 04:42:17 10° SSE
Cosmos 2084 Rocket 4.2 04:37:18 34° N 04:38:54 51° NE 04:43:18 10° SE
Cosmos 1092 Rocket 4.3 04:34:13 10° N 04:40:20 66° E 04:46:30 10° SSE
Cosmos 1340 2.6 04:42:00 78° S 04:42:00 78° S 04:45:31 10° S
Cosmos 372 Rocket 3.9 04:40:33 43° NW 04:42:13 69° WSW 04:47:23 10° S
USA 307 3.6 04:44:42 38° N 04:44:42 38° N 04:48:05 10° NE
Cosmos 1602 Rocket 3.6 04:40:25 12° N 04:44:32 80° E 04:49:00 10° S
ADEOS 3.6 04:40:33 10° N 04:45:37 52° WNW 04:47:41 33° SW
FALCON 9 DEB 3.8 04:46:55 43° NE 04:46:55 43° NE 04:49:08 10° NE
YAOGAN 6 4.4 04:43:23 10° NNE 04:46:48 34° E 04:50:10 10° SSE
Haruka 4.4 04:45:09 26° SW 04:47:38 40° S 05:01:54 10° ESE
Cosmos 1328 3.8 04:46:59 19° N 04:49:43 77° E 04:53:37 10° S
USA 305 3.7 04:50:49 35° NNW 04:50:49 35° NNW 04:54:20 10° NE
Nadezhda 4 Rocket 3.9 04:44:47 10° NNW 04:50:47 61° W 04:56:48 10° S
BREEZE-M (TANK) 3.3 04:52:16 25° ENE 04:52:16 25° ENE 04:53:26 10° E
Cosmos 1400 Rocket 3.3 04:53:19 43° NW 04:53:19 43° NW 04:56:28 10° N
USA 308 3.6 04:53:18 36° NNW 04:53:18 36° NNW 04:57:04 10° NE
FALCON 9 DEB 3.0 04:55:02 68° NNE 04:55:02 68° NNE 04:57:52 10° NE
Cosmos 2034 Rocket 4.2 04:48:43 10° SSW 04:54:51 49° WNW 05:01:00 10° N
SL-4 R/B 3.2 04:55:30 26° N 04:55:30 26° N 04:58:28 10° NE
Meteor 1-16 Rocket 4.4 04:50:08 10° SSW 04:55:52 53° WNW 05:01:41 10° N
Cosmos 2098 Rocket 4.3 04:50:48 10° N 04:56:02 47° ENE 05:00:10 10° SSE
Cosmos 1943 Rocket 3.2 04:52:33 10° NNW 04:57:59 46° ENE 05:03:24 10° SE
BREEZE M DEB (TANK) 3.0 04:59:00 22° SSE 04:59:00 22° SSE 05:00:05 10° SSE
CZ-4B R/B 2.6 04:55:28 10° S 04:57:25 29° SSW 04:57:25 29° SSW
CZ-2C R/B 4.5 04:55:10 10° SE 04:59:39 29° ENE 05:04:14 10° N
USA 306 3.8 05:02:36 30° NW 05:02:44 30° NNW 05:06:31 10° NNE
NOSS 3-2 (A) 3.4 05:00:28 25° WSW 05:03:38 54° NW 05:09:52 10° NNE
SJ-12 4.3 04:59:57 10° N 05:03:49 40° WNW 05:04:12 39° W
Cosmos 1634 Rocket 3.9 04:58:56 10° S 05:05:06 90° ENE 05:11:19 10° N
Cosmos 2298 Rocket 3.9 05:00:28 11° NNW 05:05:42 79° WSW 05:11:01 10° SSE
Envisat 3.3 05:03:06 10° NNE 05:08:11 71° ESE 05:13:15 10° S
Cosmos 2369 Rocket 3.8 05:03:17 10° N 05:08:17 32° ENE 05:13:15 10° ESE
Cosmos 1125 Rocket 3.7 05:03:09 10° NNW 05:08:29 74° ENE 05:13:47 10° SSE
COSMO-SKYMED 1 2.8 05:05:26 10° S 05:09:35 46° W 05:12:33 18° NNW
PSLV R/B 3.8 05:07:33 10° SSE 05:11:40 86° W 05:15:51 10° NNW
CZ-4B R/B 2.9 05:09:22 10° N 05:12:54 46° WNW 05:16:34 10° SSW
USA 267 4.4 05:09:11 10° S 05:14:14 24° WSW 05:16:24 20° W
Cosmos 2228 3.0 05:11:13 10° S 05:15:27 85° E 05:19:42 10° N
SL-16 R/B 2.3 05:11:00 10° SW 05:16:28 50° WNW 05:21:58 10° NNE
NOSS 3-2 (C) 3.2 05:11:40 10° SW 05:17:11 72° NW 05:23:30 10° NNE
Cosmos 2278 Rocket 3.6 05:18:36 18° WSW 05:18:36 18° WSW 05:21:48 10° SW
ERBS 2.1 05:18:11 18° SW 05:20:30 85° NW 05:23:48 10° NE
CZ-2C R/B 2.4 05:19:17 20° WSW 05:21:31 33° SSW 05:25:14 10° SE
ERS-2 2.4 05:18:51 10° S 05:22:19 44° W 05:25:09 15° NNW
CENTAUR R/B 2.5 05:18:45 10° SW 05:24:28 62° NW 05:31:16 10° NNE
Cosmos 2237 Rocket 3.6 05:24:59 17° NW 05:25:09 17° NW 05:28:46 10° N
Cosmos 1953 Rocket 4.3 05:21:06 10° N 05:25:22 55° E 05:29:39 10° SSE
Cosmos 2026 Rocket 4.0 05:20:15 10° NNW 05:26:36 70° W 05:32:55 10° S
ATLAS 5 CENTAUR R/B 2.8 05:25:47 22° W 05:27:01 28° SW 05:32:51 10° SSE
H-2A R/B 3.1 05:26:25 10° N 05:29:53 38° WNW 05:33:23 10° SW
FALCON 9 DEB 3.6 05:30:00 25° WNW 05:31:09 35° NNW 05:34:05 10° NE
Cosmos 1606 Rocket 3.4 05:27:37 10° SSW 05:31:54 70° W 05:36:14 10° N
Cosmos 1455 4.4 05:32:27 10° SSE 05:35:42 29° E 05:38:59 10° NNE
NOAA 6 4.0 05:33:57 10° NNE 05:39:10 85° WNW 05:44:21 10° SSW
FALCON 9 DEB 4.0 05:38:25 20° WNW 05:39:44 26° NNW 05:42:25 10° NNE
Lacrosse 4 Rocket 3.2 05:40:47 14° NW 05:41:18 14° NW 05:43:39 10° NNW
Cosmos 1300 3.3 05:40:29 10° SW 05:43:56 33° WNW 05:47:24 10° NNW
SAR-Lupe-4 4.4 05:42:50 10° SSW 05:45:59 29° W 05:49:10 10° NW
Cosmos 1315 Rocket 3.3 05:44:57 10° SW 05:48:31 34° WNW 05:52:07 10° N
[s.n.47389] 2.8 05:48:24 12° WSW 05:50:37 40° NW 05:53:06 10° NE
[s.n.47399] 2.8 05:48:25 12° WSW 05:50:39 40° NW 05:53:08 10° NE
[s.n.47393] 2.8 05:48:28 12° WSW 05:50:41 40° NW 05:53:10 10° NE
[s.n.47353] 2.8 05:48:32 12° WSW 05:50:45 40° NW 05:53:14 10° NE
[s.n.47355] 2.9 05:48:34 12° WSW 05:50:49 40° NW 05:53:18 10° NE
[s.n.47365] 2.9 05:48:37 12° WSW 05:50:51 40° NW 05:53:21 10° NE
[s.n.47383] 2.9 05:48:42 12° WSW 05:50:57 40° NW 05:53:26 10° NE
[s.n.47400] 2.9 05:48:40 11° WSW 05:50:58 41° NW 05:53:30 10° NE
[s.n.47378] 2.9 05:48:48 12° WSW 05:51:02 40° NW 05:53:32 10° NE
[s.n.47395] 2.9 05:48:51 12° WSW 05:51:05 40° NW 05:53:34 10° NE
[s.n.47379] 2.9 05:48:57 12° WSW 05:51:11 40° NW 05:53:41 10° NE
[s.n.47370] 2.9 05:48:57 12° WSW 05:51:12 40° NW 05:53:41 10° NE
[s.n.47351] 2.9 05:48:56 11° WSW 05:51:15 40° NW 05:53:47 10° NE
[s.n.47394] 2.9 05:49:03 12° WSW 05:51:18 40° NW 05:53:48 10° NE
[s.n.47354] 2.9 05:49:07 12° WSW 05:51:22 40° NW 05:53:50 10° NE
[s.n.47360] 2.9 05:49:09 11° WSW 05:51:24 40° NW 05:53:52 10° NE
[s.n.47369] 2.9 05:49:13 11° WSW 05:51:29 40° NW 05:53:57 10° NE
[s.n.47406] 2.9 05:49:15 11° WSW 05:51:32 39° NW 05:54:00 10° NE
[s.n.47384] 2.9 05:49:18 11° WSW 05:51:35 39° NW 05:54:03 10° NE
[s.n.47356] 2.9 05:49:21 11° WSW 05:51:38 39° NW 05:54:06 10° NE
[s.n.47407] 2.9 05:49:25 11° WSW 05:51:41 39° NW 05:54:10 10° NE
[s.n.47385] 2.9 05:49:23 11° WSW 05:51:43 40° NW 05:54:14 10° NE
[s.n.47358] 2.9 05:49:32 11° WSW 05:51:48 39° NW 05:54:17 10° NE
[s.n.47398] 2.9 05:49:33 11° WSW 05:51:51 39° NW 05:54:19 10° NE
[s.n.47361] 2.9 05:49:37 11° WSW 05:51:55 39° NW 05:54:23 10° NE
[s.n.47392] 2.9 05:49:39 11° WSW 05:51:56 39° NW 05:54:25 10° NE
[s.n.47382] 2.9 05:49:43 11° WSW 05:52:00 39° NW 05:54:28 10° NE
[s.n.47359] 2.9 05:49:43 11° WSW 05:52:03 39° NW 05:54:33 10° NE
[s.n.47401] 2.9 05:49:51 11° WSW 05:52:08 39° NW 05:54:36 10° NE
[s.n.47380] 2.9 05:49:47 11° WSW 05:52:09 39° NW 05:54:40 10° NE
[s.n.47386] 2.9 05:49:57 11° WSW 05:52:14 39° NW 05:54:43 10° NE
[s.n.47408] 2.9 05:49:55 11° WSW 05:52:17 39° NW 05:54:48 10° NE
[s.n.47396] 2.9 05:50:02 11° WSW 05:52:21 39° NW 05:54:49 10° NE
[s.n.47391] 2.9 05:50:04 11° WSW 05:52:23 39° NW 05:54:51 10° NE
[s.n.47402] 2.9 05:50:08 11° WSW 05:52:26 39° NW 05:54:54 10° NE
[s.n.47404] 2.9 05:50:11 11° WSW 05:52:30 39° NW 05:54:58 10° NE
[s.n.47403] 2.9 05:50:14 11° WSW 05:52:33 38° NW 05:55:01 10° NE
[s.n.47381] 2.9 05:50:17 11° WSW 05:52:36 38° NW 05:55:04 10° NE
[s.n.47372] 2.9 05:50:21 11° WSW 05:52:40 38° NW 05:55:08 10° NE
[s.n.47405] 2.9 05:50:23 11° WSW 05:52:42 38° NW 05:55:11 10° NE
[s.n.47368] 2.9 05:50:28 11° WSW 05:52:48 38° NW 05:55:16 10° NE
[s.n.47350] 2.9 05:50:30 11° WSW 05:52:50 38° NW 05:55:18 10° NE
[s.n.47349] 3.0 05:50:28 11° WSW 05:52:51 39° NW 05:55:23 10° NE
[s.n.47367] 2.9 05:50:34 11° WSW 05:52:55 38° NW 05:55:24 10° NE
[s.n.47373] 3.0 05:50:34 11° WSW 05:52:58 39° NW 05:55:29 10° NE
[s.n.47377] 3.0 05:50:38 11° WSW 05:53:02 39° NW 05:55:32 10° NE
[s.n.47371] 3.0 05:50:40 11° WSW 05:53:04 39° NW 05:55:35 10° NE
[s.n.47362] 3.0 05:50:43 11° WSW 05:53:07 38° NW 05:55:38 10° NE
[s.n.47363] 3.0 05:50:46 11° WSW 05:53:11 38° NW 05:55:41 10° NE
[s.n.47374] 3.0 05:50:53 11° WSW 05:53:15 38° NW 05:55:43 10° NE
[s.n.47357] 3.0 05:50:57 11° WSW 05:53:18 38° NW 05:55:47 10° NE
[s.n.47390] 3.0 05:51:01 11° WSW 05:53:23 38° NW 05:55:49 10° NE
[s.n.47387] 3.0 05:51:03 11° WSW 05:53:25 38° NW 05:55:53 10° NE
[s.n.47375] 3.0 05:51:04 11° WSW 05:53:25 38° NW 05:55:53 10° NE
[s.n.47376] 3.0 05:51:02 10° WSW 05:53:27 38° NW 05:55:58 10° NE
Cosmos 2180 Rocket 4.5 05:47:18 10° S 05:53:31 79° W 05:59:52 10° N
[s.n.47366] 3.0 05:51:13 11° WSW 05:53:35 38° NW 05:56:04 10° NE
[s.n.47352] 3.0 05:51:15 11° WSW 05:53:38 38° NW 05:56:07 10° NE
[s.n.47364] 3.0 05:51:18 10° WSW 05:53:42 38° NW 05:56:12 10° NE
[s.n.47388] 3.0 05:51:21 10° WSW 05:53:45 38° NW 05:56:14 10° NE
[s.n.47397] 3.0 05:51:28 11° WSW 05:53:51 37° NW 05:56:18 10° NE
MOS 1 Rocket 4.5 05:51:27 10° SSW 05:55:17 23° W 05:58:59 10° NW
Cosmos 1655 Rocket 4.3 05:49:07 10° N 05:55:24 76° E 06:01:43 10° SSE
Cosmos 2297 4.3 05:51:54 10° NW 05:57:07 37° WSW 06:02:18 10° S
ATLAS 3B R/B 3.5 05:51:03 10° SSW 05:57:22 54° ESE 06:03:48 10° NE
PAYLOAD B 4.2 05:52:05 10° N 05:57:41 75° WNW 06:03:16 10° SSW
NOAA 11 4.4 05:52:32 10° NNE 05:58:01 77° ESE 06:03:26 10° S
USA 238 DEB 4.4 05:53:52 10° WSW 05:59:43 32° NW 06:05:49 10° NNE
USA 238 4.3 05:53:58 10° WSW 05:59:49 33° NW 06:05:55 10° NNE
Cosmos 1346 Rocket 3.9 05:56:53 10° NW 06:00:10 25° W 06:03:27 10° SSW
Cosmos 783 Rocket 4.4 05:56:21 10° SSW 06:01:31 71° WNW 06:06:42 10° NNE
Cosmos 1689 Rocket 3.9 06:03:14 10° SW 06:04:49 14° W 06:06:24 10° WNW
NOAA 12 4.1 06:00:55 10° N 06:06:11 69° WNW 06:11:27 10° SSW
